Location: Unspecified
(35.7250°N, 0.0000°E)
Time: 12:06:55
(UTC+00:00)

Gurwin Techsat 1B - Visible Passes

Search period start: 20 July 2019 00:00
Search period end: 30 July 2019 00:00
Orbit: 812 x 813 km, 98.7° (Epoch: 19 July)

Date Brightness Start Highest point End Pass type
(mag) Time Alt. Az. Time Alt. Az. Time Alt. Az.
20 Jul 9.2 01:26:03 10° NNE 01:30:48 48° E 01:30:48 48° E visible
20 Jul 10.2 03:07:06 10° NNW 03:10:43 19° WNW 03:12:01 17° W visible
21 Jul 10.1 01:03:40 10° NE 01:07:37 28° E 01:07:37 28° E visible
21 Jul 9.6 02:43:31 10° N 02:48:06 30° WNW 02:48:49 29° W visible
22 Jul 10.7 00:41:45 10° NE 00:44:26 17° E 00:44:26 17° E visible
22 Jul 8.9 02:20:16 10° N 02:25:24 49° WNW 02:25:38 49° W visible
23 Jul 8.5 01:57:16 10° N 02:02:26 80° NW 02:02:26 80° NW visible
24 Jul 9.0 01:34:30 10° NNE 01:39:15 57° ENE 01:39:15 57° ENE visible
24 Jul 10.4 03:16:05 10° NNW 03:19:09 16° WNW 03:20:27 15° W visible
25 Jul 9.9 01:11:59 10° NNE 01:16:03 34° ENE 01:16:03 34° ENE visible
25 Jul 9.8 02:52:17 10° NNW 02:56:34 25° WNW 02:57:15 25° W visible
26 Jul 10.6 00:49:52 10° NE 00:52:51 20° E 00:52:51 20° E visible
26 Jul 9.2 02:28:56 10° N 02:33:54 41° WNW 02:34:03 41° WNW visible
27 Jul 11.1 00:28:40 10° ENE 00:29:39 12° ENE 00:29:39 12° ENE visible
27 Jul 8.7 02:05:51 10° N 02:10:51 67° NW 02:10:51 67° NW visible
28 Jul 8.9 01:42:59 10° NNE 01:47:40 64° NE 01:47:40 64° NE visible
28 Jul 10.6 03:25:14 10° NW 03:27:35 13° WNW 03:28:52 12° WNW visible
29 Jul 9.7 01:20:23 10° NNE 01:24:28 39° ENE 01:24:28 39° ENE visible
29 Jul 10.1 03:01:06 10° NNW 03:05:01 21° WNW 03:05:40 21° WNW visible
